Lid_Strength_Index
1 1 1 2 1 2 2 1 1 1 0 1 0 1 1 1 1 1 1 1 1 1
1 1 1 1 1 1 1 0 1 1 0 0 0 0 1 1 1 1 1 1 1 2
1 1 1 1 1 1 1 0 1 0 0 0 1 1 1 1 1 1 1 1 1 2
1 1 1 1 1 1 0 0 1 1 0 1 1 1 1 2 2 2 2 1 1 1
1 1 1 1 1 1 1 1 1 1 0 1 1 1 1 2 3 3 3 3 3 2
2 2 1 1 1 1 1 1 1 1 1 1 1 1 2 2 2 2 3 3 3 2
2 2 1 1 1 1 1 1 1 1 1 2 2 0 1 2 3 3 3 4 4 4
1 1 1 1 1 1 0 1 1 1 2 2 3 2 1 1 1 2 3 3 3 3
1 1 1 1 1 1 1 1 1 1 2 3 4 4 3 0 1 1 2 3 3 3
1 2 1 1 1 1 1 1 2 2 3 5 6 5 4 1 2 3 3 3 4 4
2 2 2 2 2 2 1 1 3 3 3 6 7 6 5 2 3 5 6 5 4 5
2 2 2 3 3 2 2 2 2 2 3 6 7 7 7 4 4 5 7 8 7 7
3 2 2 3 3 3 2 2 3 4 5 5 8 8 8 5 4 6 7 8 9 7
5 4 3 3 3 3 2 4 4 5 6 8 8 9 9 8 5 4 6 8 9 9